Погода в Риоаче

Колумбия     11°32′45″N   72°54′12″W
темп.,
°C
ветер,
м/с
пор.,
м/с
влажн.,
%
обл.,
%
осадки,
мм/ч
давл.,
гПа
погр.,
м
13 апреля, вт
вт1301:00+26в258798 0.0 1008189
04:00+26в2586100 0.0 1008219
07:00+26всв358492 0.0 1010347
10:00+29ссв4472100 0.0 1010898
13:00+29с547197 0.0 1008570
16:00+28ссв457958 0.4 1008528
19:00+26ссв2591100 0.6 1009223
22:00+25св3692100 3.3 1012222
14 апреля, ср
ср1401:00+26в3591100 4.9 1009123
04:00+25в229187 0.0 100930
07:00+26в2285100 0.1 1011121
10:00+30всв3568100 0.0 1011797
13:00+28с6777100 0.1 1009443
16:00+28ссв688050 0.4 1007467
19:00+26св4988100 1.0 1009380
22:00+26всв4786100 0.3 1011168
15 апреля, чт
чт1501:00+26в348562 0.6 100970
04:00+25всв5789100 0.9 1008199
07:00+26всв5785100 1.8 1010380
10:00+29св5772100 1.1 1011753
13:00
16:00+28ссв697699 1.9 1007285
19:00+27всв4580100 2.6 1008110
22:00+26всв4786100 0.1 1010216
16 апреля, пт
пт1601:00+26в4884100 0.2 1008298
04:00+25в2486100 0.0 1008130
07:00+26в2583100 0.0 1010350
10:00+29св457098 0.1 1010881
13:00+28с5676100 1.4 1008368
16:00+28ссв5676100 0.1 1006334
19:00+26св478597 0.3 1008162
22:00+27вюв497996 0.2 1010353
17 апреля, сб
сб1701:00+26вюв3683100 0.2 1009240
04:00+26вюв368559 0.0 1009282
07:00+27вюв598181 0.0 1010491
10:00+30св4667100 0.0 1011853
13:00+27сз5779100 0.4 1009280
16:00+28зсз347687 1.2 1008333
19:00+26зсз2485100 1.8 1010153
22:00+25ю238992 1.6 101263